Time,TemperatureF,DewpointF,PressureIn,WindDirection,WindDirectionDegrees,WindSpeedMPH,WindSpeedGustMPH,Humidity,HourlyPrecipIn,Conditions,Clouds,dailyrainin,SoftwareType,DateUTC
2013-03-10 00:01:00,33.1,26.6,29.69,NNW,338,6.9,6.9,77,0.00,,,0.00,WUHU216HW,2013-03-10 06:01:00,
2013-03-10 00:06:00,32.9,26.5,29.70,WNW,293,2.5,6.9,77,0.00,,,0.00,WUHU216HW,2013-03-10 06:06:00,
2013-03-10 00:11:00,32.9,26.5,29.71,North,0,3.4,3.8,77,0.00,,,0.00,WUHU216HW,2013-03-10 06:11:00,
2013-03-10 00:16:00,32.9,26.5,29.71,North,0,4.5,4.5,77,0.00,,,0.00,WUHU216HW,2013-03-10 06:16:00,
2013-03-10 00:21:00,32.9,26.5,29.70,North,0,4.7,6.7,77,0.00,,,0.00,WUHU216HW,2013-03-10 06:21:00,
2013-03-10 00:26:00,32.9,26.5,29.70,NNW,338,6.3,6.7,77,0.00,,,0.00,WUHU216HW,2013-03-10 06:26:00,
2013-03-10 00:31:00,32.8,26.3,29.70,NNW,338,4.0,6.3,77,0.00,,,0.00,WUHU216HW,2013-03-10 06:31:00,
2013-03-10 00:36:00,32.8,26.3,29.70,NNW,338,4.9,6.3,77,0.00,,,0.00,WUHU216HW,2013-03-10 06:36:00,
2013-03-10 00:41:00,32.6,26.2,29.70,North,0,3.4,6.0,77,0.00,,,0.00,WUHU216HW,2013-03-10 06:41:00,
2013-03-10 00:46:00,32.6,26.2,29.71,North,0,4.0,4.5,77,0.00,,,0.00,WUHU216HW,2013-03-10 06:46:00,
2013-03-10 00:51:00,32.6,26.2,29.71,North,0,4.0,4.0,77,0.00,,,0.00,WUHU216HW,2013-03-10 06:51:00,
2013-03-10 00:56:00,32.6,26.2,29.71,North,0,4.0,4.0,77,0.00,,,0.00,WUHU216HW,2013-03-10 06:56:00,
2013-03-10 01:01:00,32.6,26.2,29.71,North,0,3.1,3.1,77,0.00,,,0.00,WUHU216HW,2013-03-10 07:01:00,
2013-03-10 01:06:00,32.4,26.0,29.72,North,0,6.0,6.0,77,0.00,,,0.00,WUHU216HW,2013-03-10 07:06:00,
2013-03-10 01:11:00,32.4,26.0,29.75,North,0,1.8,6.3,77,0.00,,,0.00,WUHU216HW,2013-03-10 07:11:00,
2013-03-10 01:16:00,32.6,26.2,29.76,North,0,2.5,6.3,77,0.00,,,0.00,WUHU216HW,2013-03-10 07:16:00,
2013-03-10 01:21:00,32.4,26.0,29.73,North,0,4.7,4.7,77,0.00,,,0.00,WUHU216HW,2013-03-10 07:21:00,
2013-03-10 01:26:00,32.4,26.0,29.72,North,0,2.5,4.7,77,0.00,,,0.00,WUHU216HW,2013-03-10 07:26:00,
2013-03-10 01:32:00,32.2,26.2,29.72,North,0,4.7,4.7,78,0.00,,,0.00,WUHU216HW,2013-03-10 07:32:00,
2013-03-10 01:37:00,32.0,26.0,29.71,North,0,6.3,6.9,78,0.00,,,0.00,WUHU216HW,2013-03-10 07:37:00,
2013-03-10 01:42:00,32.0,26.0,29.72,North,0,2.0,6.9,78,0.00,,,0.00,WUHU216HW,2013-03-10 07:42:00,
2013-03-10 01:47:00,32.0,26.0,29.73,NNW,338,4.3,5.4,78,0.00,,,0.00,WUHU216HW,2013-03-10 07:47:00,
2013-03-10 01:52:00,31.9,25.8,29.71,NNW,338,9.4,9.4,78,0.00,,,0.00,WUHU216HW,2013-03-10 07:52:00,
2013-03-10 01:57:00,31.9,25.8,29.70,NW,315,4.7,9.4,78,0.00,,,0.00,WUHU216HW,2013-03-10 07:57:00,
2013-03-10 03:02:00,31.7,25.7,29.72,WSW,248,4.5,9.4,78,0.00,,,0.00,WUHU216HW,2013-03-10 08:02:00,
2013-03-10 03:07:00,31.7,25.7,29.72,North,0,5.4,5.4,78,0.00,,,0.00,WUHU216HW,2013-03-10 08:07:00,
2013-03-10 03:12:00,31.7,25.7,29.71,NNW,338,3.1,5.4,78,0.00,,,0.00,WUHU216HW,2013-03-10 08:12:00,
2013-03-10 03:17:00,31.5,25.5,29.72,North,0,4.7,5.6,78,0.00,,,0.00,WUHU216HW,2013-03-10 08:17:00,
2013-03-10 03:22:00,31.3,25.3,29.73,North,0,5.4,5.6,78,0.00,,,0.00,WUHU216HW,2013-03-10 08:22:00,
2013-03-10 03:27:00,31.3,25.3,29.72,North,0,3.4,5.4,78,0.00,,,0.00,WUHU216HW,2013-03-10 08:27:00,
2013-03-10 03:32:00,31.3,25.3,29.72,North,0,6.9,6.9,78,0.00,,,0.00,WUHU216HW,2013-03-10 08:32:00,
2013-03-10 03:37:00,31.3,25.3,29.72,North,0,3.8,6.9,78,0.00,,,0.00,WUHU216HW,2013-03-10 08:37:00,
2013-03-10 03:42:00,31.3,25.3,29.71,North,0,3.8,6.9,78,0.00,,,0.00,WUHU216HW,2013-03-10 08:42:00,
2013-03-10 03:47:00,31.1,25.1,29.71,North,0,4.7,5.4,78,0.00,,,0.00,WUHU216HW,2013-03-10 08:47:00,
2013-03-10 03:52:00,31.1,25.1,29.73,North,0,6.3,6.3,78,0.00,,,0.00,WUHU216HW,2013-03-10 08:52:00,
2013-03-10 03:57:00,31.1,25.1,29.73,North,0,6.0,6.3,78,0.00,,,0.00,WUHU216HW,2013-03-10 08:57:00,
2013-03-10 04:02:00,31.1,25.1,29.73,North,0,6.3,6.3,78,0.00,,,0.00,WUHU216HW,2013-03-10 09:02:00,
2013-03-10 04:07:00,31.1,25.1,29.72,North,0,4.5,6.9,78,0.00,,,0.00,WUHU216HW,2013-03-10 09:07:00,
2013-03-10 04:12:00,31.1,25.1,29.72,North,0,6.9,6.9,78,0.00,,,0.00,WUHU216HW,2013-03-10 09:12:00,
2013-03-10 04:17:00,31.1,25.1,29.73,North,0,2.7,6.9,78,0.00,,,0.00,WUHU216HW,2013-03-10 09:17:00,
2013-03-10 04:22:00,31.1,25.1,29.73,North,0,3.4,6.9,78,0.00,,,0.00,WUHU216HW,2013-03-10 09:22:00,
2013-03-10 04:27:00,31.1,25.1,29.72,North,0,2.0,4.5,78,0.00,,,0.00,WUHU216HW,2013-03-10 09:27:00,
2013-03-10 04:32:00,31.1,25.1,29.72,North,0,4.0,4.7,78,0.00,,,0.00,WUHU216HW,2013-03-10 09:32:00,
2013-03-10 04:37:00,31.0,24.9,29.73,North,0,6.3,6.3,78,0.00,,,0.00,WUHU216HW,2013-03-10 09:37:00,
2013-03-10 04:42:00,31.1,25.1,29.72,North,0,5.4,6.3,78,0.00,,,0.00,WUHU216HW,2013-03-10 09:42:00,
2013-03-10 04:47:00,31.0,24.9,29.72,North,0,4.0,6.3,78,0.00,,,0.00,WUHU216HW,2013-03-10 09:47:00,
2013-03-10 04:52:00,31.0,24.9,29.72,North,0,4.9,5.4,78,0.00,,,0.00,WUHU216HW,2013-03-10 09:52:00,
2013-03-10 04:57:00,31.0,24.9,29.72,North,0,4.9,4.9,78,0.00,,,0.00,WUHU216HW,2013-03-10 09:57:00,
2013-03-10 05:02:00,31.0,24.9,29.73,North,0,6.9,6.9,78,0.00,,,0.00,WUHU216HW,2013-03-10 10:02:00,
2013-03-10 05:08:00,31.0,24.9,29.72,North,0,8.7,8.7,78,0.00,,,0.00,WUHU216HW,2013-03-10 10:08:00,
2013-03-10 05:13:00,31.0,24.9,29.71,North,0,6.3,8.7,78,0.00,,,0.00,WUHU216HW,2013-03-10 10:13:00,
2013-03-10 05:18:00,31.0,24.9,29.70,North,0,6.9,8.7,78,0.00,,,0.00,WUHU216HW,2013-03-10 10:18:00,
2013-03-10 05:23:00,31.0,24.9,29.72,North,0,5.8,6.9,78,0.00,,,0.00,WUHU216HW,2013-03-10 10:23:00,
2013-03-10 05:28:00,31.0,24.9,29.72,North,0,5.1,7.6,78,0.00,,,0.00,WUHU216HW,2013-03-10 10:28:00,
2013-03-10 05:33:00,31.0,24.9,29.73,North,0,2.5,7.6,78,0.00,,,0.00,WUHU216HW,2013-03-10 10:33:00,
2013-03-10 05:38:00,31.0,24.9,29.75,North,0,4.0,5.1,78,0.00,,,0.00,WUHU216HW,2013-03-10 10:38:00,
2013-03-10 05:43:00,30.8,24.8,29.76,North,0,5.4,5.4,78,0.00,,,0.00,WUHU216HW,2013-03-10 10:43:00,
2013-03-10 05:48:00,30.6,24.6,29.78,North,0,2.5,7.6,78,0.00,,,0.00,WUHU216HW,2013-03-10 10:48:00,
2013-03-10 05:53:00,30.6,24.6,29.77,North,0,1.3,7.6,78,0.00,,,0.00,WUHU216HW,2013-03-10 10:53:00,
2013-03-10 05:58:00,30.6,24.6,29.78,North,0,2.7,3.4,78,0.00,,,0.00,WUHU216HW,2013-03-10 10:58:00,
2013-03-10 06:03:00,30.6,24.6,29.78,North,0,3.1,4.5,78,0.00,,,0.00,WUHU216HW,2013-03-10 11:03:00,
2013-03-10 06:08:00,30.6,24.6,29.80,North,0,4.0,4.5,78,0.00,,,0.00,WUHU216HW,2013-03-10 11:08:00,
2013-03-10 06:13:00,30.6,24.6,29.81,North,0,1.3,4.0,78,0.00,,,0.00,WUHU216HW,2013-03-10 11:13:00,
2013-03-10 06:18:00,30.6,24.6,29.81,North,0,0.9,4.0,78,0.00,,,0.00,WUHU216HW,2013-03-10 11:18:00,
2013-03-10 06:23:00,30.4,24.4,29.81,North,0,2.7,2.7,78,0.00,,,0.00,WUHU216HW,2013-03-10 11:23:00,
2013-03-10 06:28:00,30.4,24.4,29.79,North,0,6.9,6.9,78,0.00,,,0.00,WUHU216HW,2013-03-10 11:28:00,
2013-03-10 06:33:00,30.2,24.2,29.77,North,0,5.8,6.9,78,0.00,,,0.00,WUHU216HW,2013-03-10 11:33:00,
2013-03-10 06:38:00,30.1,24.0,29.76,North,0,4.5,5.8,78,0.00,,,0.00,WUHU216HW,2013-03-10 11:38:00,
2013-03-10 06:43:00,30.1,24.0,29.76,North,0,2.9,6.3,78,0.00,,,0.00,WUHU216HW,2013-03-10 11:43:00,
2013-03-10 06:48:00,29.9,23.9,29.75,North,0,2.5,6.3,78,0.00,,,0.00,WUHU216HW,2013-03-10 11:48:00,
2013-03-10 06:53:00,29.9,23.9,29.77,North,0,6.9,6.9,78,0.00,,,0.00,WUHU216HW,2013-03-10 11:53:00,
2013-03-10 06:59:00,29.9,23.9,29.77,North,0,8.1,8.1,78,0.00,,,0.00,WUHU216HW,2013-03-10 11:59:00,
2013-03-10 07:04:00,29.9,23.9,29.77,North,0,5.4,8.1,78,0.00,,,0.00,WUHU216HW,2013-03-10 12:04:00,
2013-03-10 07:09:00,29.9,23.9,29.79,North,0,5.4,5.4,78,0.00,,,0.00,WUHU216HW,2013-03-10 12:09:00,
2013-03-10 07:14:00,29.9,23.9,29.79,North,0,5.4,5.4,78,0.00,,,0.00,WUHU216HW,2013-03-10 12:14:00,
2013-03-10 07:19:00,29.9,23.9,29.78,North,0,3.4,5.4,78,0.00,,,0.00,WUHU216HW,2013-03-10 12:19:00,
2013-03-10 07:24:00,29.9,23.9,29.78,North,0,3.8,3.8,78,0.00,,,0.00,WUHU216HW,2013-03-10 12:24:00,
2013-03-10 07:29:00,29.7,23.7,29.77,North,0,5.4,5.4,78,0.00,,,0.00,WUHU216HW,2013-03-10 12:29:00,
2013-03-10 07:34:00,29.7,23.7,29.77,North,0,3.4,5.4,78,0.00,,,0.00,WUHU216HW,2013-03-10 12:34:00,
2013-03-10 07:39:00,29.5,23.5,29.77,North,0,3.4,5.4,78,0.00,,,0.00,WUHU216HW,2013-03-10 12:39:00,
2013-03-10 07:44:00,29.5,23.5,29.79,North,0,1.8,3.4,78,0.00,,,0.00,WUHU216HW,2013-03-10 12:44:00,
2013-03-10 07:49:00,29.3,23.3,29.80,North,0,4.0,4.0,78,0.00,,,0.00,WUHU216HW,2013-03-10 12:49:00,
2013-03-10 07:54:00,28.4,22.8,29.81,North,0,1.8,4.0,79,0.00,,,0.00,WUHU216HW,2013-03-10 12:54:00,
2013-03-10 07:59:00,28.3,22.6,29.82,North,0,3.4,3.4,79,0.00,,,0.00,WUHU216HW,2013-03-10 12:59:00,
2013-03-10 08:04:00,27.7,22.1,29.82,North,0,2.9,3.4,79,0.00,,,0.00,WUHU216HW,2013-03-10 13:04:00,
2013-03-10 08:09:00,27.4,21.7,29.83,North,0,2.5,3.4,79,0.00,,,0.00,WUHU216HW,2013-03-10 13:09:00,
2013-03-10 08:14:00,27.0,21.3,29.82,North,0,2.7,3.8,79,0.00,,,0.00,WUHU216HW,2013-03-10 13:14:00,
2013-03-10 08:19:00,26.8,21.2,29.82,North,0,2.7,3.8,79,0.00,,,0.00,WUHU216HW,2013-03-10 13:19:00,
2013-03-10 08:24:00,26.5,20.8,29.82,North,0,2.5,3.1,79,0.00,,,0.00,WUHU216HW,2013-03-10 13:24:00,
2013-03-10 08:29:00,26.3,20.6,29.82,North,0,4.3,4.7,79,0.00,,,0.00,WUHU216HW,2013-03-10 13:29:00,
2013-03-10 08:34:00,26.3,20.6,29.83,North,0,2.0,4.7,79,0.00,,,0.00,WUHU216HW,2013-03-10 13:34:00,
2013-03-10 08:39:00,26.3,20.6,29.82,North,0,2.5,4.5,79,0.00,,,0.00,WUHU216HW,2013-03-10 13:39:00,
2013-03-10 08:44:00,26.3,20.6,29.82,North,0,3.4,4.5,79,0.00,,,0.00,WUHU216HW,2013-03-10 13:44:00,
2013-03-10 08:49:00,26.1,20.4,29.82,North,0,3.4,3.4,79,0.00,,,0.00,WUHU216HW,2013-03-10 13:49:00,
2013-03-10 08:54:00,26.1,20.4,29.83,North,0,2.2,3.4,79,0.00,,,0.00,WUHU216HW,2013-03-10 13:54:00,
2013-03-10 08:59:00,25.9,20.3,29.83,North,0,1.8,3.4,79,0.00,,,0.00,WUHU216HW,2013-03-10 13:59:00,
2013-03-10 09:04:00,25.9,20.3,29.82,North,0,2.0,3.4,79,0.00,,,0.00,WUHU216HW,2013-03-10 14:04:00,
2013-03-10 09:09:00,26.1,20.4,29.82,North,0,4.0,5.4,79,0.00,,,0.00,WUHU216HW,2013-03-10 14:09:00,
2013-03-10 09:14:00,26.1,20.4,29.82,North,0,3.4,5.8,79,0.00,,,0.00,WUHU216HW,2013-03-10 14:14:00,
2013-03-10 09:19:00,26.1,20.4,29.82,North,0,3.8,5.8,79,0.00,,,0.00,WUHU216HW,2013-03-10 14:19:00,
2013-03-10 09:24:00,25.9,20.3,29.82,North,0,2.9,3.8,79,0.00,,,0.00,WUHU216HW,2013-03-10 14:24:00,
2013-03-10 09:29:00,25.9,20.3,29.80,North,0,3.4,3.8,79,0.00,,,0.00,WUHU216HW,2013-03-10 14:29:00,
2013-03-10 09:34:00,26.1,20.4,29.80,North,0,3.6,3.6,79,0.00,,,0.00,WUHU216HW,2013-03-10 14:34:00,
2013-03-10 09:39:00,25.9,20.3,29.80,North,0,3.8,3.8,79,0.00,,,0.00,WUHU216HW,2013-03-10 14:39:00,
2013-03-10 09:44:00,25.9,20.3,29.81,North,0,1.8,3.8,79,0.00,,,0.00,WUHU216HW,2013-03-10 14:44:00,
2013-03-10 09:49:00,25.9,20.3,29.82,North,0,2.7,3.8,79,0.00,,,0.00,WUHU216HW,2013-03-10 14:49:00,
2013-03-10 09:54:00,26.1,20.4,29.82,North,0,2.2,3.4,79,0.00,,,0.00,WUHU216HW,2013-03-10 14:54:00,
2013-03-10 09:59:00,26.3,20.6,29.82,North,0,4.0,4.0,79,0.00,,,0.00,WUHU216HW,2013-03-10 14:59:00,
2013-03-10 10:04:00,26.3,20.6,29.83,North,0,4.7,4.7,79,0.00,,,0.00,WUHU216HW,2013-03-10 15:04:00,
2013-03-10 10:09:00,26.3,20.6,29.84,North,0,2.0,4.7,79,0.00,,,0.00,WUHU216HW,2013-03-10 15:09:00,
2013-03-10 10:14:00,26.3,20.6,29.84,North,0,3.4,3.4,79,0.00,,,0.00,WUHU216HW,2013-03-10 15:14:00,
2013-03-10 10:19:00,26.3,20.6,29.84,North,0,2.9,3.6,79,0.00,,,0.00,WUHU216HW,2013-03-10 15:19:00,
2013-03-10 10:24:00,26.5,20.8,29.84,North,0,3.6,4.0,79,0.00,,,0.00,WUHU216HW,2013-03-10 15:24:00,
2013-03-10 10:29:00,26.5,20.8,29.84,North,0,4.0,4.0,79,0.00,,,0.00,WUHU216HW,2013-03-10 15:29:00,
2013-03-10 10:35:00,26.3,20.6,29.84,North,0,3.4,4.0,79,0.00,,,0.00,WUHU216HW,2013-03-10 15:35:00,
2013-03-10 10:39:00,26.3,20.6,29.84,North,0,2.9,4.0,79,0.00,,,0.00,WUHU216HW,2013-03-10 15:39:00,
2013-03-10 10:45:00,26.3,20.6,29.84,North,0,2.9,3.6,79,0.00,,,0.00,WUHU216HW,2013-03-10 15:45:00,
2013-03-10 10:50:00,26.3,20.6,29.85,North,0,3.1,4.7,79,0.00,,,0.00,WUHU216HW,2013-03-10 15:50:00,
2013-03-10 10:55:00,26.3,20.6,29.85,North,0,2.7,4.7,79,0.00,,,0.00,WUHU216HW,2013-03-10 15:55:00,
2013-03-10 11:00:00,26.3,20.6,29.86,North,0,3.1,3.4,79,0.00,,,0.00,WUHU216HW,2013-03-10 16:00:00,
2013-03-10 11:05:00,26.3,20.6,29.86,North,0,2.2,3.1,79,0.00,,,0.00,WUHU216HW,2013-03-10 16:05:00,
2013-03-10 11:10:00,26.3,20.6,29.86,North,0,2.5,2.5,79,0.00,,,0.00,WUHU216HW,2013-03-10 16:10:00,
2013-03-10 11:15:00,26.3,20.6,29.85,North,0,3.1,3.4,79,0.00,,,0.00,WUHU216HW,2013-03-10 16:15:00,
2013-03-10 11:20:00,26.3,20.4,29.85,North,0,2.5,3.4,78,0.00,,,0.00,WUHU216HW,2013-03-10 16:20:00,
2013-03-10 11:25:00,26.3,20.4,29.85,North,0,3.1,3.1,78,0.00,,,0.00,WUHU216HW,2013-03-10 16:25:00,
2013-03-10 11:30:00,25.7,20.1,29.85,North,0,2.5,4.7,79,0.00,,,0.00,WUHU216HW,2013-03-10 16:30:00,
2013-03-10 11:35:00,25.6,19.6,29.86,North,0,1.8,4.7,78,0.00,,,0.00,WUHU216HW,2013-03-10 16:35:00,
2013-03-10 11:40:00,25.6,20.0,29.86,North,0,2.9,3.1,79,0.00,,,0.00,WUHU216HW,2013-03-10 16:40:00,
2013-03-10 11:45:00,25.4,19.8,29.86,North,0,2.2,2.9,79,0.00,,,0.00,WUHU216HW,2013-03-10 16:45:00,
2013-03-10 11:50:00,25.2,19.6,29.86,North,0,3.1,3.1,79,0.00,,,0.00,WUHU216HW,2013-03-10 16:50:00,
2013-03-10 11:55:00,25.0,19.4,29.87,North,0,2.0,3.4,79,0.00,,,0.00,WUHU216HW,2013-03-10 16:55:00,
2013-03-10 12:00:00,24.8,19.3,29.86,North,0,2.7,3.4,79,0.00,,,0.00,WUHU216HW,2013-03-10 17:00:00,
2013-03-10 12:05:00,24.8,19.3,29.86,North,0,3.4,4.0,79,0.00,,,0.00,WUHU216HW,2013-03-10 17:05:00,
2013-03-10 12:10:00,24.8,19.3,29.86,North,0,3.6,4.5,79,0.00,,,0.00,WUHU216HW,2013-03-10 17:10:00,
2013-03-10 12:15:00,24.8,19.3,29.86,North,0,2.5,4.5,79,0.00,,,0.00,WUHU216HW,2013-03-10 17:15:00,
2013-03-10 12:20:00,25.0,19.4,29.86,North,0,4.0,4.3,79,0.00,,,0.00,WUHU216HW,2013-03-10 17:20:00,
2013-03-10 12:25:00,24.8,19.3,29.86,North,0,3.4,4.0,79,0.00,,,0.00,WUHU216HW,2013-03-10 17:25:00,
2013-03-10 12:30:00,24.8,19.3,29.86,North,0,2.5,4.0,79,0.00,,,0.00,WUHU216HW,2013-03-10 17:30:00,
2013-03-10 12:35:00,25.2,19.6,29.86,North,0,3.4,3.4,79,0.00,,,0.00,WUHU216HW,2013-03-10 17:35:00,
2013-03-10 12:40:00,25.6,20.0,29.86,North,0,2.5,3.4,79,0.00,,,0.00,WUHU216HW,2013-03-10 17:40:00,
2013-03-10 12:45:00,25.7,20.1,29.86,North,0,2.5,2.9,79,0.00,,,0.00,WUHU216HW,2013-03-10 17:45:00,
2013-03-10 12:50:00,26.3,20.4,29.87,North,0,0.7,3.4,78,0.00,,,0.00,WUHU216HW,2013-03-10 17:50:00,
2013-03-10 12:55:00,26.6,20.6,29.87,North,0,5.4,5.4,78,0.00,,,0.00,WUHU216HW,2013-03-10 17:55:00,
2013-03-10 13:00:00,26.8,20.8,29.87,North,0,2.9,5.4,78,0.00,,,0.00,WUHU216HW,2013-03-10 18:00:00,
2013-03-10 13:05:00,26.8,20.8,29.87,North,0,3.6,5.4,78,0.00,,,0.00,WUHU216HW,2013-03-10 18:05:00,
2013-03-10 13:10:00,27.0,21.0,29.87,North,0,3.4,3.6,78,0.00,,,0.00,WUHU216HW,2013-03-10 18:10:00,
2013-03-10 13:15:00,27.0,21.0,29.87,North,0,2.5,4.0,78,0.00,,,0.00,WUHU216HW,2013-03-10 18:15:00,
2013-03-10 13:20:00,26.8,20.8,29.87,North,0,2.9,4.0,78,0.00,,,0.00,WUHU216HW,2013-03-10 18:20:00,
2013-03-10 13:25:00,26.8,20.8,29.87,North,0,2.7,3.6,78,0.00,,,0.00,WUHU216HW,2013-03-10 18:25:00,
2013-03-10 13:30:00,26.8,20.8,29.86,North,0,4.0,4.5,78,0.00,,,0.00,WUHU216HW,2013-03-10 18:30:00,
2013-03-10 13:35:00,27.0,21.0,29.86,North,0,2.5,4.5,78,0.00,,,0.00,WUHU216HW,2013-03-10 18:35:00,
2013-03-10 13:41:00,27.0,21.0,29.87,North,0,3.4,3.8,78,0.00,,,0.00,WUHU216HW,2013-03-10 18:41:00,
2013-03-10 13:45:00,26.8,20.8,29.87,North,0,3.4,3.4,78,0.00,,,0.00,WUHU216HW,2013-03-10 18:45:00,
2013-03-10 13:51:00,26.6,20.6,29.86,North,0,2.7,3.4,78,0.00,,,0.00,WUHU216HW,2013-03-10 18:51:00,
2013-03-10 13:56:00,26.8,20.8,29.87,North,0,2.5,3.4,78,0.00,,,0.00,WUHU216HW,2013-03-10 18:56:00,
2013-03-10 14:01:00,27.0,21.0,29.86,North,0,2.2,2.7,78,0.00,,,0.00,WUHU216HW,2013-03-10 19:01:00,
2013-03-10 14:06:00,26.8,20.8,29.86,North,0,2.5,3.1,78,0.00,,,0.00,WUHU216HW,2013-03-10 19:06:00,
2013-03-10 14:11:00,26.6,20.6,29.86,North,0,3.1,4.0,78,0.00,,,0.00,WUHU216HW,2013-03-10 19:11:00,
2013-03-10 14:16:00,26.5,20.4,29.86,North,0,2.5,4.3,78,0.00,,,0.00,WUHU216HW,2013-03-10 19:16:00,
2013-03-10 14:21:00,26.5,20.4,29.86,North,0,2.9,4.3,78,0.00,,,0.00,WUHU216HW,2013-03-10 19:21:00,
2013-03-10 14:26:00,26.3,20.4,29.86,North,0,3.4,3.4,78,0.00,,,0.00,WUHU216HW,2013-03-10 19:26:00,
2013-03-10 14:31:00,26.3,20.4,29.86,North,0,2.2,3.4,78,0.00,,,0.00,WUHU216HW,2013-03-10 19:31:00,
2013-03-10 14:36:00,26.3,20.4,29.86,North,0,3.4,4.0,78,0.00,,,0.00,WUHU216HW,2013-03-10 19:36:00,
2013-03-10 14:41:00,26.1,20.2,29.86,North,0,2.5,4.0,78,0.00,,,0.00,WUHU216HW,2013-03-10 19:41:00,
2013-03-10 14:46:00,25.9,20.0,29.85,North,0,4.0,4.0,78,0.00,,,0.00,WUHU216HW,2013-03-10 19:46:00,
2013-03-10 14:51:00,25.9,20.0,29.86,North,0,2.7,4.0,78,0.00,,,0.00,WUHU216HW,2013-03-10 19:51:00,
2013-03-10 14:56:00,25.9,20.0,29.86,North,0,2.0,3.4,78,0.00,,,0.00,WUHU216HW,2013-03-10 19:56:00,
2013-03-10 15:01:00,25.7,19.8,29.86,North,0,4.0,4.0,78,0.00,,,0.00,WUHU216HW,2013-03-10 20:01:00,
2013-03-10 15:06:00,25.6,19.6,29.86,North,0,2.7,4.0,78,0.00,,,0.00,WUHU216HW,2013-03-10 20:06:00,
2013-03-10 15:12:00,25.6,19.6,29.86,North,0,4.0,4.0,78,0.00,,,0.00,WUHU216HW,2013-03-10 20:12:00,
2013-03-10 15:17:00,25.6,19.6,29.86,North,0,2.5,4.0,78,0.00,,,0.00,WUHU216HW,2013-03-10 20:17:00,
2013-03-10 15:22:00,25.2,19.3,29.86,North,0,3.4,4.0,78,0.00,,,0.00,WUHU216HW,2013-03-10 20:22:00,
2013-03-10 15:27:00,25.4,19.4,29.86,North,0,2.5,4.0,78,0.00,,,0.00,WUHU216HW,2013-03-10 20:27:00,
2013-03-10 15:32:00,25.2,19.3,29.87,North,0,4.5,4.5,78,0.00,,,0.00,WUHU216HW,2013-03-10 20:32:00,
2013-03-10 15:37:00,25.0,19.2,29.87,North,0,4.0,4.5,78,0.00,,,0.00,WUHU216HW,2013-03-10 20:37:00,
2013-03-10 15:42:00,24.8,19.0,29.87,North,0,4.7,4.7,78,0.00,,,0.00,WUHU216HW,2013-03-10 20:42:00,
2013-03-10 15:47:00,24.7,18.8,29.87,North,0,3.4,4.7,78,0.00,,,0.00,WUHU216HW,2013-03-10 20:47:00,
2013-03-10 15:52:00,24.5,18.6,29.87,North,0,3.8,4.0,78,0.00,,,0.00,WUHU216HW,2013-03-10 20:52:00,
2013-03-10 15:57:00,24.3,18.5,29.87,North,0,2.5,3.8,78,0.00,,,0.00,WUHU216HW,2013-03-10 20:57:00,
2013-03-10 16:03:00,24.3,18.7,29.88,North,0,2.5,3.4,79,0.00,,,0.00,WUHU216HW,2013-03-10 21:03:00,
2013-03-10 16:08:00,24.1,18.5,29.88,North,0,3.4,4.9,79,0.00,,,0.00,WUHU216HW,2013-03-10 21:08:00,
2013-03-10 16:13:00,24.1,18.5,29.88,North,0,3.1,4.9,79,0.00,,,0.00,WUHU216HW,2013-03-10 21:13:00,
2013-03-10 16:18:00,23.9,18.4,29.88,North,0,2.5,3.8,79,0.00,,,0.00,WUHU216HW,2013-03-10 21:18:00,
2013-03-10 16:23:00,23.9,18.4,29.88,North,0,1.8,4.0,79,0.00,,,0.00,WUHU216HW,2013-03-10 21:23:00,
2013-03-10 16:28:00,23.9,18.4,29.88,North,0,3.4,4.3,79,0.00,,,0.00,WUHU216HW,2013-03-10 21:28:00,
2013-03-10 16:33:00,23.9,18.4,29.89,North,0,2.0,4.3,79,0.00,,,0.00,WUHU216HW,2013-03-10 21:33:00,
2013-03-10 16:38:00,23.9,18.4,29.89,North,0,2.0,2.7,79,0.00,,,0.00,WUHU216HW,2013-03-10 21:38:00,
2013-03-10 16:43:00,23.9,18.4,29.89,North,0,2.5,2.7,79,0.00,,,0.00,WUHU216HW,2013-03-10 21:43:00,
2013-03-10 16:48:00,23.6,17.7,29.89,North,0,2.2,3.6,78,0.00,,,0.00,WUHU216HW,2013-03-10 21:48:00,
2013-03-10 16:53:00,23.4,17.6,29.89,North,0,2.5,3.6,78,0.00,,,0.00,WUHU216HW,2013-03-10 21:53:00,
2013-03-10 16:58:00,23.4,17.6,29.89,North,0,2.0,2.9,78,0.00,,,0.00,WUHU216HW,2013-03-10 21:58:00,
2013-03-10 17:03:00,23.2,17.4,29.89,North,0,2.0,3.6,78,0.00,,,0.00,WUHU216HW,2013-03-10 22:03:00,
2013-03-10 17:08:00,23.0,17.2,29.90,North,0,2.0,3.6,78,0.00,,,0.00,WUHU216HW,2013-03-10 22:08:00,
2013-03-10 17:13:00,23.0,17.2,29.90,North,0,1.8,3.6,78,0.00,,,0.00,WUHU216HW,2013-03-10 22:13:00,
2013-03-10 17:18:00,23.0,17.2,29.90,North,0,2.0,2.9,78,0.00,,,0.00,WUHU216HW,2013-03-10 22:18:00,
2013-03-10 17:23:00,22.9,17.0,29.90,North,0,2.5,2.9,78,0.00,,,0.00,WUHU216HW,2013-03-10 22:23:00,
2013-03-10 17:28:00,22.7,16.8,29.90,North,0,2.2,3.1,78,0.00,,,0.00,WUHU216HW,2013-03-10 22:28:00,
2013-03-10 17:33:00,22.7,16.8,29.90,North,0,2.0,3.1,78,0.00,,,0.00,WUHU216HW,2013-03-10 22:33:00,
2013-03-10 17:38:00,22.7,16.8,29.90,North,0,2.2,3.4,78,0.00,,,0.00,WUHU216HW,2013-03-10 22:38:00,
2013-03-10 17:44:00,22.7,16.8,29.90,North,0,2.2,3.4,78,0.00,,,0.00,WUHU216HW,2013-03-10 22:44:00,
2013-03-10 17:49:00,22.7,16.8,29.90,North,0,2.5,2.5,78,0.00,,,0.00,WUHU216HW,2013-03-10 22:49:00,
2013-03-10 17:54:00,22.7,16.8,29.90,North,0,2.5,2.5,78,0.00,,,0.00,WUHU216HW,2013-03-10 22:54:00,
2013-03-10 18:00:00,22.1,16.3,29.90,North,0,3.4,3.4,78,0.00,,,0.00,WUHU216HW,2013-03-10 23:00:00,
2013-03-10 18:05:00,22.0,16.1,29.90,North,0,3.4,3.4,78,0.00,,,0.00,WUHU216HW,2013-03-10 23:05:00,
2013-03-10 18:10:00,21.8,15.9,29.90,North,0,2.5,3.4,78,0.00,,,0.00,WUHU216HW,2013-03-10 23:10:00,
2013-03-10 18:15:00,21.6,15.8,29.91,North,0,2.7,3.4,78,0.00,,,0.00,WUHU216HW,2013-03-10 23:15:00,
2013-03-10 18:20:00,21.6,15.8,29.91,North,0,3.1,3.1,78,0.00,,,0.00,WUHU216HW,2013-03-10 23:20:00,
2013-03-10 18:25:00,21.8,15.9,29.91,North,0,1.6,3.4,78,0.00,,,0.00,WUHU216HW,2013-03-10 23:25:00,
2013-03-10 18:30:00,21.8,15.9,29.91,North,0,3.1,3.4,78,0.00,,,0.00,WUHU216HW,2013-03-10 23:30:00,
2013-03-10 18:35:00,21.8,15.9,29.91,North,0,2.7,3.4,78,0.00,,,0.00,WUHU216HW,2013-03-10 23:35:00,
2013-03-10 18:40:00,21.8,16.3,29.91,North,0,3.1,3.8,79,0.00,,,0.00,WUHU216HW,2013-03-10 23:40:00,
2013-03-10 18:45:00,21.6,16.1,29.92,North,0,4.0,4.0,79,0.00,,,0.00,WUHU216HW,2013-03-10 23:45:00,
2013-03-10 18:50:00,21.4,15.9,29.92,North,0,4.0,4.0,79,0.00,,,0.00,WUHU216HW,2013-03-10 23:50:00,
2013-03-10 18:56:00,21.2,15.8,29.92,North,0,3.4,4.5,79,0.00,,,0.00,WUHU216HW,2013-03-10 23:56:00,
2013-03-10 19:01:00,21.2,15.8,29.92,North,0,2.9,4.5,79,0.00,,,0.00,WUHU216HW,2013-03-11 00:01:00,
2013-03-10 19:06:00,21.2,15.8,29.93,North,0,2.5,3.4,79,0.00,,,0.00,WUHU216HW,2013-03-11 00:06:00,
2013-03-10 19:11:00,21.1,15.6,29.92,North,0,2.9,4.0,79,0.00,,,0.00,WUHU216HW,2013-03-11 00:11:00,
2013-03-10 19:17:00,21.1,15.6,29.92,North,0,3.1,4.0,79,0.00,,,0.00,WUHU216HW,2013-03-11 00:17:00,
2013-03-10 19:22:00,20.9,15.4,29.92,North,0,2.5,4.0,79,0.00,,,0.00,WUHU216HW,2013-03-11 00:22:00,
2013-03-10 19:27:00,20.9,15.4,29.92,North,0,3.6,4.0,79,0.00,,,0.00,WUHU216HW,2013-03-11 00:27:00,
2013-03-10 19:32:00,21.1,15.6,29.93,North,0,2.7,3.8,79,0.00,,,0.00,WUHU216HW,2013-03-11 00:32:00,
2013-03-10 19:37:00,20.9,15.4,29.92,North,0,3.4,3.4,79,0.00,,,0.00,WUHU216HW,2013-03-11 00:37:00,
2013-03-10 19:42:00,20.9,15.4,29.93,North,0,2.7,4.0,79,0.00,,,0.00,WUHU216HW,2013-03-11 00:42:00,
2013-03-10 19:47:00,20.9,15.4,29.93,North,0,2.7,4.0,79,0.00,,,0.00,WUHU216HW,2013-03-11 00:47:00,
2013-03-10 19:52:00,21.1,15.6,29.92,North,0,4.7,4.7,79,0.00,,,0.00,WUHU216HW,2013-03-11 00:52:00,
2013-03-10 19:57:00,21.1,15.6,29.93,North,0,2.5,4.7,79,0.00,,,0.00,WUHU216HW,2013-03-11 00:57:00,
2013-03-10 20:03:00,21.1,15.6,29.92,North,0,3.4,3.4,79,0.00,,,0.00,WUHU216HW,2013-03-11 01:03:00,
2013-03-10 20:08:00,21.1,15.6,29.92,North,0,3.6,3.8,79,0.00,,,0.00,WUHU216HW,2013-03-11 01:08:00,
2013-03-10 20:13:00,20.9,15.4,29.92,North,0,3.1,3.8,79,0.00,,,0.00,WUHU216HW,2013-03-11 01:13:00,
2013-03-10 20:18:00,21.1,15.6,29.93,North,0,2.7,3.8,79,0.00,,,0.00,WUHU216HW,2013-03-11 01:18:00,
2013-03-10 20:23:00,21.1,15.6,29.93,North,0,4.3,4.3,79,0.00,,,0.00,WUHU216HW,2013-03-11 01:23:00,
2013-03-10 20:28:00,21.1,15.6,29.93,North,0,3.1,4.3,79,0.00,,,0.00,WUHU216HW,2013-03-11 01:28:00,
2013-03-10 20:33:00,20.9,15.4,29.93,North,0,2.5,4.7,79,0.00,,,0.00,WUHU216HW,2013-03-11 01:33:00,
2013-03-10 20:38:00,21.1,15.6,29.93,North,0,4.0,4.7,79,0.00,,,0.00,WUHU216HW,2013-03-11 01:38:00,
2013-03-10 20:43:00,21.1,15.6,29.93,North,0,2.7,4.0,79,0.00,,,0.00,WUHU216HW,2013-03-11 01:43:00,
2013-03-10 20:48:00,21.1,15.6,29.93,North,0,2.2,4.0,79,0.00,,,0.00,WUHU216HW,2013-03-11 01:48:00,
2013-03-10 20:53:00,20.9,15.4,29.93,North,0,1.8,3.8,79,0.00,,,0.00,WUHU216HW,2013-03-11 01:53:00,
2013-03-10 20:58:00,20.9,15.4,29.93,North,0,3.6,3.8,79,0.00,,,0.00,WUHU216HW,2013-03-11 01:58:00,
2013-03-10 21:04:00,21.1,15.6,29.93,North,0,2.5,3.6,79,0.00,,,0.00,WUHU216HW,2013-03-11 02:04:00,
2013-03-10 21:09:00,21.1,15.6,29.93,North,0,2.9,4.0,79,0.00,,,0.00,WUHU216HW,2013-03-11 02:09:00,
2013-03-10 21:14:00,21.1,15.6,29.93,North,0,2.7,4.0,79,0.00,,,0.00,WUHU216HW,2013-03-11 02:14:00,
2013-03-10 21:19:00,21.1,15.6,29.94,North,0,3.4,4.0,79,0.00,,,0.00,WUHU216HW,2013-03-11 02:19:00,
2013-03-10 21:24:00,21.1,15.6,29.93,North,0,2.0,4.0,79,0.00,,,0.00,WUHU216HW,2013-03-11 02:24:00,
2013-03-10 21:29:00,21.1,15.6,29.93,North,0,2.9,3.8,79,0.00,,,0.00,WUHU216HW,2013-03-11 02:29:00,
2013-03-10 21:34:00,21.1,15.6,29.93,North,0,2.7,3.8,79,0.00,,,0.00,WUHU216HW,2013-03-11 02:34:00,
2013-03-10 21:39:00,21.1,15.6,29.94,North,0,3.1,3.6,79,0.00,,,0.00,WUHU216HW,2013-03-11 02:39:00,
2013-03-10 21:44:00,21.1,15.6,29.94,North,0,2.5,3.4,79,0.00,,,0.00,WUHU216HW,2013-03-11 02:44:00,
2013-03-10 21:49:00,21.1,15.6,29.94,North,0,3.1,3.4,79,0.00,,,0.00,WUHU216HW,2013-03-11 02:49:00,
2013-03-10 21:54:00,21.1,15.6,29.94,North,0,2.5,3.1,79,0.00,,,0.00,WUHU216HW,2013-03-11 02:54:00,
2013-03-10 21:59:00,21.1,15.6,29.94,North,0,2.5,3.4,79,0.00,,,0.00,WUHU216HW,2013-03-11 02:59:00,
2013-03-10 22:04:00,21.1,15.6,29.94,North,0,2.2,3.4,79,0.00,,,0.00,WUHU216HW,2013-03-11 03:04:00,
2013-03-10 22:09:00,21.1,15.6,29.94,North,0,3.4,4.0,79,0.00,,,0.00,WUHU216HW,2013-03-11 03:09:00,
2013-03-10 22:15:00,21.1,15.6,29.94,North,0,3.4,4.0,79,0.00,,,0.00,WUHU216HW,2013-03-11 03:15:00,
2013-03-10 22:39:00,21.2,15.8,29.94,North,0,1.8,1.8,79,0.00,,,0.00,WUHU216HW,2013-03-11 03:39:00,
2013-03-10 22:44:00,21.2,15.8,29.94,North,0,2.5,2.9,79,0.00,,,0.00,WUHU216HW,2013-03-11 03:44:00,
2013-03-10 22:49:00,21.2,15.8,29.94,North,0,2.5,2.9,79,0.00,,,0.00,WUHU216HW,2013-03-11 03:49:00,
2013-03-10 22:54:00,21.2,15.8,29.94,North,0,1.3,2.5,79,0.00,,,0.00,WUHU216HW,2013-03-11 03:54:00,
2013-03-10 22:59:00,21.2,15.8,29.94,North,0,2.0,2.5,79,0.00,,,0.00,WUHU216HW,2013-03-11 03:59:00,
2013-03-10 23:00:00,21.2,15.8,29.94,North,0,1.6,2.5,79,0.00,,,0.00,WUHU216HW,2013-03-11 04:00:00,
2013-03-10 23:01:00,21.2,15.8,29.94,North,0,1.8,2.5,79,0.00,,,0.00,WUHU216HW,2013-03-11 04:01:00,
2013-03-10 23:06:00,21.2,15.8,29.94,North,0,1.6,2.5,79,0.00,,,0.00,WUHU216HW,2013-03-11 04:06:00,
2013-03-10 23:11:00,21.2,15.8,29.94,North,0,2.0,2.0,79,0.00,,,0.00,WUHU216HW,2013-03-11 04:11:00,
2013-03-10 23:16:00,21.2,15.8,29.94,North,0,2.0,2.0,79,0.00,,,0.00,WUHU216HW,2013-03-11 04:16:00,
2013-03-10 23:40:00,21.2,15.8,29.94,North,0,1.8,1.8,79,0.00,,,0.00,WUHU216HW,2013-03-11 04:40:00,
2013-03-10 23:45:00,21.2,15.8,29.94,North,0,1.1,2.7,79,0.00,,,0.00,WUHU216HW,2013-03-11 04:45:00,
2013-03-10 23:50:00,21.2,15.8,29.94,North,0,1.8,2.9,79,0.00,,,0.00,WUHU216HW,2013-03-11 04:50:00,
2013-03-10 23:55:00,21.2,15.8,29.94,North,0,2.2,2.9,79,0.00,,,0.00,WUHU216HW,2013-03-11 04:55:00,